ONEWEB-0203 (48235 NORAD) Tracking and Keplerian Element Data

This shows tracking and keplerian element data for the satellite.

Feedback or suggestion? Click here.




ElementValue
Catalog48235
NameONEWEB-0203
Epoch Orbit180
Epoch Day136.75001157
Epoch Year2021
RAAN305.7898
Inclination87.4179
Eccentricity0.0009967
Argument of Perigee184.1261
Mean Anonmoly234.3082
Mean Motion15.26177482
Decay Rate-0.01419757
L11 48235U 21031AB 21136.75001157 -.01419757 00000-0 -60607-1 0 9994
L22 48235 87.4179 305.7898 0009967 184.1261 234.3082 15.26177482 1808

Live tracking and technical data element details for ONEWEB-0203 (NORAD 48235). ONEWEB-0203 can be tracked NOW for your location showing map with azimuth and elevation plus other details from your city location.

Track the satellite on the map from your city or location and see movement details for azimuth, elevation, latitude, longitude, range, height, and movement on the map or in text.







IsCatalogInMostPopularTable: catalog: 48235, numindb: 4
Update: records affected: 1



GetName: 48235 ONEWEB-0203

Hit Count: updated at: Mon, 17 May 2021 16:39:37 GMT